map of ASH home
ASH - Airport
Location
City:  Nashua, New Hampshire, United States
Name:Boire Field
ICAO:KASH
IATA:ASH
FAA LID:ASH

Details
Type:Airport (Airfield)
Use:Public/Civil
Latitude:4246'57"N (42.782414)
Longitude:7130'51"W (-71.514093)
Datum:WGS 1984
Elevation:200 ft (61 m)
Variation:14.52W (WMM2015 magnetic declination)
0.06 annual change
Runways:1
Longest:6000 × 100 ft (1829 × 30.5 m), paved

Time
Time Zone:UTC-5 (DST-4)
Local Time:

Weather
METAR:KASH 210656Z AUTO 31005KT 10SM CLR 06/05 A2957 RMK AO2 SLP026 T00610050

Related Locations
Nearby:
Farthest:YAUG: 11748 mi / 18906 km
Augusta [Augusta Airport], WA, AU

Find:

   beyond  
but within

Other Information
Maps:
NOTAMs:
Links:
Sources:

  
  • flag of United States
  • flag of New Hampshire
  

Airport Diagram

Airport diagram for ASH

Airport diagram PDF

Sectional Chart

Flight Planning
at skyvector.com

Satellite Image

Google Maps Satellite view

 

Copyright © 2004-2018 Karl L. Swartz. All rights reserved.
The Great Circle Mapper name and logo are trademarks of the Great Circle Mapper.
All other trademarks mentioned herein belong to their respective owners.
Please see credits for attibutions and further copyright information.

  Follow gcmap on Facebook Follow gcmap on Twitter Follow gcmap on Google+ GCmap on LinkedIn

hCard Microformat

Geo Microformat